ATLAS 5 CENTAUR DEB, 43980

Orbit data source: Space-Track

ATLAS 5 CENTAUR DEB, 43980 is space debris in HEO originally from a launch on Wed, 17 Sep 2014 UTC launched from the Air Force Eastern Test Range (AFETR). Debris objects in space refer to the collection of defunct objects orbiting the Earth. Examples of debris include non-operational satellites, rocket bodies, and fragments generated from explosions, collisions, or faulty payload assembly.

Loading next visibility...
Identifier
43980, 2014-055AK
Orbit
HEO
Country
Flag of USUS
Related business
Flag of USUnited Launch Alliance/Lockheed Martin (US)
Manufacturer
Unknown
Mission
Spacecraft
Bus & Motor
Unknown
Mass
Unknown
Launch date (UTC)
2014-09-17 (11 years ago)
Launch vehicle
Unknown
Launch site
Air Force Eastern Test Range (AFETR)
Object type
Payload
Rocket body
Debris
Shape & HBR
Unknown shape, 1.1 m
Radar Cross Section
Medium (>0.1 m² and <1 m²)

Expand to show TLE details & history
Last TLE update: 3 days ago

TLE from 3 days ago
0 ATLAS 5 CENTAUR DEB
1 43980U 14055AK  26058.95057398 -.00000068  00000-0  00000-0 0  9991
2 43980  19.7473 157.3546 4805484 136.9242 272.6734  1.83783676 50171
Epoch: 2026-02-27T22:48Z
TLE epoch observation values (Epoch: 2026-02-27T22:48:49.591Z)
Latitude
0.00007°
Longitude
17.31028°
Altitude
27,021.898 km
Speed
3.116 km/s
True Right ascension
10h 29m 11s
True Declination
0° 00' 00"
Sunlit
Object was in full shadow at epoch
Visualization orbit readout
Latitude
Unknown
Longitude
Unknown
Altitude
Unknown
Speed
Unknown
Apparent Right ascension
Unknown
Apparent Declination
Unknown
Sunlit
N/A
Visualization observer readout
Local Sidereal Time
08:15:20
Azimuth
Unknown
Elevation
Unknown
Doppler factor
Unknown
Orbital elements
Apogee altitude
35,307.177 km
Perigee altitude
8,247.189 km
Semi-major axis
28,155.32 km
Eccentricity
0.48055
Inclination
19.7473°
RAAN
157.3546°
Arg. of periapsis
136.9242°
True anomaly
223.02031°
Mean anomaly
272.6734°
Eccentric anomaly
247.27705°
Mean motion
0.45941 °/min
Orbital period
783.61 mins
BSTAR
0
Loading maneuver chart data...
Computing Atmospheric mass density...

Documentation

Showing up to 5 results
|